Home   Weather   Allentown   Past weeks

Flag for USA Past Weather in Allentown, Pennsylvania, USA — Yesterday and Last 2 Weeks

Now
85 °F

Sunny.


Feels Like: 91 °F
Forecast: 72 / 92 °F
Wind: 5 mph from West

Location: Lehigh Valley International Airport

Current Time: Jul 20, 2017 at 11:16:42 am

Latest Report: Jul 20, 2017 at 9:51 am


Visibility: 9 mi

Pressure: 30.00 "Hg

Humidity: 65%

Dew Point: 72 °F

Location of AllentownLocation

Past Weather in Allentown — Graph

°F

Allentown Temperature Yesterday

Maximum temperature yesterday: 92 °F (at 1:51 pm)
Minimum temperature yesterday: 70 °F (at 4:53 am)
Average temperature yesterday: 81 °F

High & Low Weather Summary for the Past Weeks

 TemperatureHumidityPressure
High92 °F (Jul 19, 1:51 pm)93% (Jul 13, 9:51 pm)30.19 "Hg (Jul 13, 9:51 pm)
Low58 °F (Jul 10, 4:51 am)35% (Jul 9, 3:51 pm)29.72 "Hg (Jul 7, 4:51 pm)
Average75 °F74%29.98 "Hg
* Reported Jul 5 9:51 am — Jul 20 9:51 am, Allentown. Weather by CustomWeather, © 2017

Note: Actual official high and low records may vary slightly from our data, if they occured in-between our weather recording intervals... More about our weather records

Advertising

Allentown Weather History for the Previous 24 Hours

Scroll right to see more
 ConditionsComfort  
Time TempWeatherWind HumidityBarometerVisibility
9:51 am
Thu, Jul 20
85 °FSunny.5 mph65%30.00 "Hg9 mi
8:51 am81 °FSunny.5 mph69%30.00 "Hg9 mi
7:51 am77 °FSunny.3 mph79%30.00 "Hg7 mi
6:51 am74 °FSunny.No wind88%29.99 "Hg7 mi
5:51 am71 °FFog.No wind90%29.98 "Hg6 mi
4:51 am72 °FFog.No wind87%29.97 "Hg4 mi
3:51 am74 °FClear.No wind85%29.98 "Hg6 mi
2:51 am73 °FClear.3 mph84%29.98 "Hg7 mi
1:51 am76 °FClear.3 mph80%30.00 "Hg9 mi
12:51 am76 °FClear.5 mph80%30.00 "Hg10 mi
11:51 pm
Wed, Jul 19
76 °FClear.5 mph80%30.00 "Hg10 mi
10:51 pm78 °FClear.3 mph71%30.00 "Hg10 mi
9:51 pm79 °FPassing clouds.3 mph69%30.00 "Hg10 mi
8:51 pm81 °FClear.3 mph65%29.99 "Hg10 mi
7:51 pm85 °FPassing clouds.6 mph59%29.98 "Hg10 mi
6:51 pm89 °FSunny.10 mph52%29.96 "Hg10 mi
5:51 pm91 °FSunny.8 mph49%29.97 "Hg10 mi
4:51 pm92 °FScattered clouds.8 mph44%29.98 "Hg10 mi
3:51 pm92 °FSunny.10 mph44%29.99 "Hg10 mi
2:51 pm91 °FSunny.9 mph45%30.00 "Hg10 mi
1:51 pm92 °FPassing clouds.10 mph43%30.02 "Hg10 mi
12:51 pm91 °FPassing clouds.10 mph44%30.03 "Hg10 mi
11:51 am89 °FSunny.7 mph48%30.04 "Hg10 mi
Weather by CustomWeather, © 2017

See weather overviewHow to use our weather pages